EET,Max TemperatureF,Mean TemperatureF,Min TemperatureF,Max Dew PointF,MeanDew PointF,Min DewpointF,Max Humidity, Mean Humidity, Min Humidity, Max Sea Level PressureIn, Mean Sea Level PressureIn, Min Sea Level PressureIn, Max VisibilityMiles, Mean VisibilityMiles, Min VisibilityMiles, Max Wind SpeedMPH, Mean Wind SpeedMPH, Max Gust SpeedMPH,PrecipitationIn, CloudCover, Events, WindDirDegrees
2012-10-1,86,73,60,59,52,45,73,48,25,30.09,30.06,30.04,,,,22,5,,0.00,,,33
2012-10-2,86,72,57,64,56,48,88,59,30,30.09,30.04,29.98,6,6,6,8,3,,0.00,3,,217
2012-10-3,86,75,64,63,59,52,78,57,31,30.01,29.95,29.92,6,6,6,13,4,,0.00,2,,197
2012-10-4,78,71,62,63,58,50,88,64,36,29.98,29.93,29.92,6,6,6,14,4,,0.00,4,,34
2012-10-5,80,68,57,61,58,54,94,68,42,30.06,30.01,29.95,6,6,6,18,5,28,0.00,1,,10
2012-10-6,80,72,64,59,52,43,60,46,35,30.09,30.08,30.06,6,6,6,22,8,29,0.00,1,,15
2012-10-7,82,70,59,59,49,43,68,47,28,30.06,30.00,29.92,,,,10,4,,0.00,,,215
2012-10-8,84,74,64,61,56,48,78,55,30,29.89,29.86,29.83,6,6,6,13,3,,0.00,5,,104
2012-10-9,75,70,66,61,57,54,78,66,53,29.95,29.90,29.89,6,6,6,17,9,,0.00,4,,29
2012-10-10,71,66,62,59,56,54,77,67,60,29.89,29.85,29.83,6,6,6,8,4,,0.00,6,Rain,26
2012-10-11,75,68,60,57,56,54,88,67,53,29.98,29.89,29.86,6,6,6,9,3,,0.00,4,,35
2012-10-12,78,66,53,63,58,50,88,72,50,30.04,30.01,29.98,6,6,6,14,4,,0.00,4,,232
2012-10-13,80,71,62,64,61,55,94,69,42,30.01,29.99,29.95,6,6,6,16,4,,0.00,4,,207
2012-10-14,80,70,60,66,59,54,83,66,45,29.98,29.95,29.92,6,6,6,17,5,25,0.00,4,Rain,220
2012-10-15,80,73,66,66,63,57,83,70,51,30.06,29.99,29.95,6,6,6,16,5,,0.00,4,,226
2012-10-16,86,76,66,68,63,57,88,71,37,30.12,30.08,30.04,6,6,5,14,4,,0.00,2,,221
2012-10-17,84,75,66,68,62,55,88,68,44,30.12,30.10,30.09,6,6,5,12,3,,0.00,4,,30
2012-10-18,80,70,60,64,57,50,82,62,42,30.15,30.12,30.09,6,6,6,21,7,,0.00,2,,9
2012-10-19,77,72,68,57,53,46,68,52,41,30.15,30.12,30.09,6,6,6,24,15,,0.00,1,,24
2012-10-20,77,70,64,52,47,41,56,45,29,30.09,30.07,30.04,,,,22,11,,0.00,,,24
2012-10-21,71,66,62,54,50,46,72,56,41,30.04,30.03,30.01,6,6,6,20,9,,0.00,4,Rain,356
2012-10-22,69,64,60,57,53,50,77,68,56,30.01,29.99,29.98,6,6,3,14,6,,0.00,4,Rain,326
2012-10-23,66,62,59,61,55,52,94,77,68,30.01,29.98,29.95,6,6,4,12,6,,0.00,6,Rain,345
2012-10-24,68,64,60,57,56,54,88,76,68,30.01,29.98,29.95,6,6,4,17,9,,0.00,5,Rain,356
2012-10-25,69,61,53,55,52,50,94,68,49,30.01,29.95,29.92,6,6,6,16,9,,0.00,2,,8
2012-10-26,75,62,50,57,52,48,94,72,41,29.92,29.89,29.86,6,6,6,12,3,,0.00,1,,246
2012-10-27,75,64,53,64,58,52,94,76,53,29.89,29.84,29.80,6,6,6,24,8,,0.00,6,,219
2012-10-28,78,74,69,64,60,55,78,63,47,29.86,29.81,29.53,6,6,6,31,20,39,0.00,5,,183
2012-10-29,78,72,64,64,59,50,73,64,52,29.80,29.73,29.65,6,6,5,25,7,41,0.00,4,Rain-Thunderstorm,185
2012-10-30,71,65,59,48,44,39,63,47,31,29.95,29.85,29.74,6,6,6,15,8,,0.00,2,,260
2012-10-31,73,63,53,54,46,36,88,56,30,29.98,29.95,29.92,6,6,6,8,3,,0.00,4,,331